Weather History for Galesburg, IL

Change the Weather History Date:

Friday, September 16, 2011

  Actual Average Record
Temperature  
Mean Temperature 52 °F -  
Max Temperature 57 °F 73 °F 89 °F (1955)
Min Temperature 46 °F 54 °F 39 °F (1984)
Degree Days  
Heating Degree Days 14    
Growing Degree Days 2 (Base 50)    
Moisture  
Dew Point 40 °F    
Average Humidity 62    
Maximum Humidity 81    
Minimum Humidity 48    
Precipitation  
Precipitation 0.02 in - - ()
Sea Level Pressure  
Sea Level Pressure 30.31 in    
Wind  
Wind Speed 3 mph (ENE)    
Max Wind Speed 9 mph    
Max Gust Speed -    
Visibility 10 miles    
Events Rain    
Averages and records for this station are not official NWS values.
T = Trace of Precipitation, MM = Missing Value Source: NWS Daily Summary

Daily Weather History Graph

Daily Weather History Graph

Search for Another Location

Airport:

Trip Planner

Search our weather history database for the weather conditions in past years. The results will help you decide how hot, cold, wet, or windy it might be!

Date:

Astronomy

Sep. 16, 2011 Rise Set
Actual Time 6:43 AM CDT 7:09 PM CDT
Civil Twilight 6:15 AM CDT 7:37 PM CDT
Nautical Twilight 5:42 AM CDT 8:09 PM CDT
Astronomical Twilight 5:09 AM CDT 8:42 PM CDT
Moon 8:57 PM CDT (9/16) 10:51 AM CDT (9/16)
Length of Visible Light 13h 21m
Length of Day
12h 26m
Waning Gibbous, 84% of the Moon is Illuminated
Sep 16
Waning Gibbous
Sep 20
Last Quarter
Sep 27
New
Oct 3
First Quarter
Oct 11
Full

Hourly Weather History & Observations

Time (CDT) Temp. Dew Point Humidity Pressure Visibility Wind Dir Wind Speed Gust Speed Precip Events Conditions
12:15 AM 46.4 °F 41.0 °F 81% 30.32 in 10.0 mi Calm Calm - N/A   Clear
12:35 AM 48.2 °F 39.2 °F 71% 30.32 in 10.0 mi Calm Calm - N/A   Clear
12:55 AM 50.0 °F 39.2 °F 66% 30.31 in 10.0 mi Calm Calm - N/A   Clear
1:15 AM 50.0 °F 37.4 °F 62% 30.31 in 10.0 mi ENE 4.6 mph - N/A   Clear
1:35 AM 51.8 °F 33.8 °F 50% 30.32 in 10.0 mi ENE 4.6 mph - N/A   Clear
1:55 AM 51.8 °F 35.6 °F 54% 30.32 in 10.0 mi East 3.5 mph - N/A   Clear
2:15 AM 50.0 °F 35.6 °F 58% 30.32 in 10.0 mi East 3.5 mph - N/A   Clear
2:35 AM 50.0 °F 37.4 °F 62% 30.32 in 10.0 mi ENE 3.5 mph - N/A   Clear
2:55 AM 50.0 °F 37.4 °F 62% 30.32 in 10.0 mi East 3.5 mph - N/A   Clear
3:15 AM 50.0 °F 37.4 °F 62% 30.33 in 10.0 mi Calm Calm - N/A   Clear
3:35 AM 50.0 °F 37.4 °F 62% 30.32 in 10.0 mi East 3.5 mph - N/A   Clear
3:55 AM 50.0 °F 37.4 °F 62% 30.32 in 10.0 mi Calm Calm - N/A   Mostly Cloudy
4:15 AM 50.0 °F 39.2 °F 66% 30.34 in 10.0 mi East 3.5 mph - N/A   Scattered Clouds
4:35 AM 50.0 °F 39.2 °F 66% 30.34 in 10.0 mi Calm Calm - N/A   Clear
4:55 AM 50.0 °F 39.2 °F 66% 30.34 in 10.0 mi Calm Calm - N/A   Mostly Cloudy
5:15 AM 50.0 °F 41.0 °F 71% 30.34 in 10.0 mi Calm Calm - N/A   Scattered Clouds
5:35 AM 50.0 °F 41.0 °F 71% 30.34 in 10.0 mi Calm Calm - N/A   Scattered Clouds
6:15 AM 50.0 °F 41.0 °F 71% 30.34 in 10.0 mi Calm Calm - N/A   Mostly Cloudy
6:35 AM 50.0 °F 41.0 °F 71% 30.34 in 10.0 mi ENE 3.5 mph - N/A   Overcast
6:55 AM 50.0 °F 41.0 °F 71% 30.34 in 10.0 mi East 3.5 mph - N/A   Overcast
7:15 AM 50.0 °F 41.0 °F 71% 30.34 in 10.0 mi ENE 4.6 mph - N/A   Overcast
7:35 AM 50.0 °F 41.0 °F 71% 30.35 in 10.0 mi East 4.6 mph - N/A   Overcast
7:55 AM 51.8 °F 41.0 °F 67% 30.35 in 10.0 mi East 3.5 mph - N/A   Overcast
8:15 AM 51.8 °F 41.0 °F 67% 30.35 in 10.0 mi East 4.6 mph - N/A   Overcast
8:35 AM 53.6 °F 37.4 °F 54% 30.35 in 10.0 mi East 4.6 mph - N/A   Overcast
8:55 AM 53.6 °F 37.4 °F 54% 30.35 in 10.0 mi East 5.8 mph - N/A   Overcast
9:15 AM 53.6 °F 37.4 °F 54% 30.35 in 10.0 mi East 6.9 mph - N/A   Overcast
9:35 AM 53.6 °F 39.2 °F 58% 30.35 in 10.0 mi ESE 5.8 mph - N/A   Overcast
9:55 AM 53.6 °F 37.4 °F 54% 30.35 in 10.0 mi East 4.6 mph - N/A   Overcast
10:15 AM 53.6 °F 37.4 °F 54% 30.36 in 10.0 mi ESE 5.8 mph - N/A   Overcast
10:35 AM 55.4 °F 37.4 °F 51% 30.35 in 10.0 mi East 4.6 mph - N/A   Overcast
10:55 AM 55.4 °F 37.4 °F 51% 30.35 in 10.0 mi ESE 3.5 mph - N/A   Overcast
11:15 AM 55.4 °F 37.4 °F 51% 30.36 in 10.0 mi East 5.8 mph - N/A   Overcast
11:35 AM 55.4 °F 37.4 °F 51% 30.35 in 10.0 mi ESE 6.9 mph - N/A   Overcast
11:55 AM 57.2 °F 37.4 °F 48% 30.35 in 10.0 mi SE 3.5 mph - N/A   Overcast
12:15 PM 57.2 °F 37.4 °F 48% 30.34 in 10.0 mi ESE 4.6 mph - N/A   Overcast
12:35 PM 57.2 °F 37.4 °F 48% 30.34 in 10.0 mi East 3.5 mph - N/A   Overcast
1:15 PM 57.2 °F 39.2 °F 51% 30.33 in 10.0 mi East 3.5 mph - N/A Rain Rain
1:35 PM 55.4 °F 42.8 °F 63% 30.33 in 10.0 mi Calm Calm - N/A Rain Light Rain
1:55 PM 55.4 °F 44.6 °F 67% 30.31 in 10.0 mi East 3.5 mph - 0.01 in Rain Light Rain
2:15 PM 55.4 °F 42.8 °F 63% 30.31 in 10.0 mi ENE 3.5 mph - 0.01 in Rain Light Rain
2:35 PM 55.4 °F 42.8 °F 63% 30.31 in 10.0 mi Calm Calm - 0.01 in Rain Light Rain
2:55 PM 55.4 °F 41.0 °F 58% 30.31 in 10.0 mi North 5.8 mph - 0.01 in   Mostly Cloudy
3:15 PM 55.4 °F 42.8 °F 63% 30.30 in 10.0 mi North 5.8 mph - N/A   Overcast
3:35 PM 55.4 °F 42.8 °F 63% 30.29 in 10.0 mi North 6.9 mph - N/A   Overcast
3:55 PM 55.4 °F 41.0 °F 58% 30.28 in 10.0 mi North 4.6 mph - N/A   Overcast
4:15 PM 55.4 °F 41.0 °F 58% 30.28 in 10.0 mi NNE 5.8 mph - N/A   Overcast
4:35 PM 55.4 °F 42.8 °F 63% 30.28 in 10.0 mi North 6.9 mph - N/A   Overcast
4:55 PM 55.4 °F 42.8 °F 63% 30.28 in 10.0 mi North 8.1 mph - N/A   Overcast
5:15 PM 55.4 °F 42.8 °F 63% 30.27 in 10.0 mi North 8.1 mph - N/A   Overcast
5:35 PM 55.4 °F 42.8 °F 63% 30.27 in 10.0 mi North 8.1 mph - N/A   Overcast
5:55 PM 55.4 °F 41.0 °F 58% 30.27 in 10.0 mi North 9.2 mph - N/A   Overcast
6:15 PM 55.4 °F 41.0 °F 58% 30.27 in 10.0 mi North 6.9 mph - N/A   Overcast
6:35 PM 55.4 °F 41.0 °F 58% 30.27 in 10.0 mi North 6.9 mph - N/A   Overcast
6:55 PM 53.6 °F 41.0 °F 62% 30.26 in 10.0 mi North 8.1 mph - N/A   Overcast
7:15 PM 53.6 °F 41.0 °F 62% 30.26 in 10.0 mi North 6.9 mph - N/A   Overcast
7:35 PM 53.6 °F 41.0 °F 62% 30.26 in 10.0 mi NNE 6.9 mph - N/A   Overcast
7:55 PM 53.6 °F 41.0 °F 62% 30.26 in 10.0 mi NNE 6.9 mph - N/A   Overcast
8:15 PM 53.6 °F 41.0 °F 62% 30.26 in 10.0 mi NNE 8.1 mph - N/A   Overcast
8:35 PM 53.6 °F 41.0 °F 62% 30.26 in 10.0 mi NNE 8.1 mph - N/A   Overcast
8:55 PM 53.6 °F 42.8 °F 67% 30.27 in 10.0 mi NNE 6.9 mph - N/A   Overcast
9:15 PM 53.6 °F 42.8 °F 67% 30.27 in 10.0 mi NNE 8.1 mph - N/A   Overcast
9:35 PM 53.6 °F 42.8 °F 67% 30.26 in 10.0 mi NNE 6.9 mph - N/A   Overcast
9:55 PM 53.6 °F 42.8 °F 67% 30.26 in 10.0 mi NE 5.8 mph - N/A   Overcast
10:15 PM 53.6 °F 44.6 °F 72% 30.26 in 10.0 mi NE 5.8 mph - N/A   Overcast
10:35 PM 53.6 °F 44.6 °F 72% 30.26 in 10.0 mi NE 4.6 mph - N/A   Overcast
10:55 PM 53.6 °F 44.6 °F 72% 30.27 in 10.0 mi NE 5.8 mph - N/A   Overcast
11:15 PM 53.6 °F 44.6 °F 72% 30.26 in 10.0 mi NE 5.8 mph - N/A   Overcast
11:35 PM 53.6 °F 42.8 °F 67% 30.26 in 10.0 mi NE 4.6 mph - N/A   Overcast
11:55 PM 53.6 °F 44.6 °F 72% 30.26 in 10.0 mi ENE 3.5 mph - N/A   Overcast